STARLINK-11267 [DTC] (60994 NORAD) Tracking and Keplerian Element Data

This shows tracking and keplerian element data for the satellite.

Feedback or suggestion? Click here.




ElementValue
Catalog60994
NameSTARLINK-11267 [DTC]
Epoch Orbit706
Epoch Day286.91668981
Epoch Year2024
RAAN289.3515
Inclination53.1585
Eccentricity0.0001247
Argument of Perigee87.3843
Mean Anonmoly274.0602
Mean Motion15.6968916
Decay Rate0.00039225
L11 60994U 24158E 24286.91668981 .00039225 00000+0 32737-3 0 9993
L22 60994 53.1585 289.3515 0001247 87.3843 274.0602 15.69689160 7062



Live tracking and technical data element details for STARLINK-11267 [DTC] (NORAD 60994). STARLINK-11267 [DTC] can be tracked NOW for your location showing map with azimuth and elevation plus other details from your city location.







IsCatalogInMostPopularTable: catalog: 60994, numindb: 9
Update: records affected: 1



GetName: 60994 STARLINK-11267 [DTC]

Hit Count: updated at: Tue, 03 Dec 2024 01:36:40 GMT